Stündliche Wetter Barma

Heute, 30 Oktober, Freitag

Zeit Temperatur Niederschläge Wind Luftdruck Luftfeuchtigkeit
00:00 +4°C° 0 mm 3 m/S 747 mmHg 67%
01:00 +5°C° 0 mm 2 m/S 746 mmHg 68%
02:00 +5°C° 0 mm 2 m/S 746 mmHg 69%
03:00 +5°C° 0 mm 2 m/S 746 mmHg 70%
04:00 +5°C° 0 mm 2 m/S 746 mmHg 71%
05:00 +5°C° 0 mm 2 m/S 745 mmHg 71%
06:00 +4°C° 0 mm 3 m/S 745 mmHg 72%
07:00 +4°C° 0 mm 3 m/S 745 mmHg 72%
08:00 +5°C° 0 mm 2 m/S 745 mmHg 73%
09:00 +5°C° 0 mm 2 m/S 745 mmHg 73%
10:00 +6°C° 0 mm 2 m/S 745 mmHg 72%
11:00 +7°C° 0 mm 2 m/S 744 mmHg 71%
12:00 +8°C° 0 mm 1 m/S 744 mmHg 71%
13:00 +9°C° 0 mm 1 m/S 744 mmHg 70%
14:00 +9°C° 0 mm 1 m/S 744 mmHg 70%
15:00 +9°C° 0 mm 1 m/S 744 mmHg 70%
16:00 +9°C° 0 mm 1 m/S 744 mmHg 74%
17:00 +8°C° 0 mm 1 m/S 744 mmHg 78%
18:00 +7°C° 0 mm 1 m/S 744 mmHg 83%
19:00 +7°C° 0 mm 1 m/S 744 mmHg 84%
20:00 +7°C° 0 mm 1 m/S 744 mmHg 85%
21:00 +7°C° 0 mm 1 m/S 744 mmHg 86%
22:00 +7°C° 0 mm 1 m/S 744 mmHg 88%
23:00 +6°C° 0 mm 1 m/S 744 mmHg 89%

Morgen, 31 Oktober, Samstag

Zeit Temperatur Niederschläge Wind Luftdruck Luftfeuchtigkeit
00:00 +6°C° 0 mm 1 m/S 744 mmHg 90%
01:00 +6°C° 0 mm 1 m/S 744 mmHg 90%
02:00 +6°C° 0 mm 1 m/S 743 mmHg 91%
03:00 +5°C° 0 mm 2 m/S 743 mmHg 91%
04:00 +5°C° 0 mm 2 m/S 744 mmHg 91%
05:00 +5°C° 0 mm 2 m/S 744 mmHg 91%
06:00 +5°C° 0 mm 2 m/S 744 mmHg 91%
07:00 +5°C° 0 mm 2 m/S 744 mmHg 91%
08:00 +4°C° 0 mm 3 m/S 744 mmHg 90%
09:00 +4°C° 0 mm 3 m/S 744 mmHg 90%
10:00 +5°C° 0 mm 3 m/S 744 mmHg 87%
11:00 +7°C° 0 mm 3 m/S 745 mmHg 84%
12:00 +8°C° 0 mm 3 m/S 745 mmHg 81%
13:00 +8°C° 0 mm 3 m/S 745 mmHg 80%
14:00 +7°C° 0 mm 4 m/S 745 mmHg 79%
15:00 +7°C° 0 mm 4 m/S 745 mmHg 78%
16:00 +7°C° 0 mm 4 m/S 746 mmHg 81%
17:00 +6°C° 0 mm 4 m/S 746 mmHg 83%
18:00 +5°C° 0 mm 4 m/S 746 mmHg 86%
19:00 +5°C° 0 mm 4 m/S 746 mmHg 86%
20:00 +5°C° 0 mm 4 m/S 747 mmHg 86%
21:00 +5°C° 0 mm 5 m/S 747 mmHg 86%
22:00 +5°C° 0 mm 5 m/S 747 mmHg 87%
23:00 +3°C° 0 mm 5 m/S 747 mmHg 88%

übermorgen, 1 November, Sonntag

Zeit Temperatur Niederschläge Wind Luftdruck Luftfeuchtigkeit
00:00 +3°C° 0 mm 5 m/S 747 mmHg 89%
01:00 +3°C° 0 mm 5 m/S 747 mmHg 90%
02:00 +2°C° 0 mm 5 m/S 747 mmHg 91%
03:00 +2°C° 0 mm 5 m/S 748 mmHg 93%
04:00 +2°C° 0 mm 6 m/S 748 mmHg 93%
05:00 +2°C° 0 mm 6 m/S 748 mmHg 93%
06:00 +2°C° 0 mm 7 m/S 748 mmHg 93%
07:00 +2°C° 0 mm 7 m/S 748 mmHg 93%
08:00 +2°C° 0 mm 7 m/S 748 mmHg 92%
09:00 +3°C° 0 mm 7 m/S 748 mmHg 92%
10:00 +3°C° 0 mm 7 m/S 748 mmHg 90%
11:00 +3°C° 0 mm 7 m/S 748 mmHg 89%
12:00 +4°C° 0 mm 7 m/S 748 mmHg 88%
13:00 +4°C° 0.1 mm 7 m/S 748 mmHg 88%
14:00 +4°C° 0.1 mm 6 m/S 747 mmHg 88%
15:00 +4°C° 0.1 mm 6 m/S 747 mmHg 87%
16:00 +4°C° 0.4 mm 6 m/S 747 mmHg 89%
17:00 +4°C° 0.4 mm 6 m/S 747 mmHg 90%
18:00 +4°C° 0.4 mm 6 m/S 747 mmHg 91%
19:00 +5°C° 0.3 mm 6 m/S 747 mmHg 91%
20:00 +5°C° 0.3 mm 6 m/S 747 mmHg 92%
21:00 +5°C° 0.3 mm 6 m/S 747 mmHg 93%
22:00 +6°C° 0.2 mm 5 m/S 747 mmHg 93%
23:00 +6°C° 0.2 mm 5 m/S 747 mmHg 93%

2 November, Montag

Zeit Temperatur Niederschläge Wind Luftdruck Luftfeuchtigkeit
00:00 +6°C° 0.2 mm 5 m/S 747 mmHg 93%
01:00 +6°C° 0 mm 5 m/S 747 mmHg 93%
02:00 +6°C° 0 mm 5 m/S 747 mmHg 94%
03:00 +6°C° 0 mm 4 m/S 747 mmHg 94%
04:00 +6°C° 0 mm 4 m/S 747 mmHg 94%
05:00 +6°C° 0 mm 4 m/S 747 mmHg 94%
06:00 +6°C° 0 mm 4 m/S 747 mmHg 94%
07:00 +6°C° 0 mm 4 m/S 747 mmHg 93%
08:00 +6°C° 0 mm 4 m/S 747 mmHg 93%
09:00 +6°C° 0 mm 5 m/S 748 mmHg 92%
10:00 +7°C° 0 mm 5 m/S 748 mmHg 88%
11:00 +7°C° 0 mm 5 m/S 748 mmHg 85%
12:00 +7°C° 0 mm 5 m/S 748 mmHg 82%
13:00 +8°C° 0 mm 5 m/S 748 mmHg 80%
14:00 +8°C° 0 mm 5 m/S 748 mmHg 79%
15:00 +8°C° 0 mm 5 m/S 748 mmHg 77%
16:00 +7°C° 0.1 mm 5 m/S 748 mmHg 80%
17:00 +7°C° 0.1 mm 5 m/S 748 mmHg 83%
18:00 +7°C° 0.1 mm 5 m/S 748 mmHg 85%
19:00 +6°C° 0 mm 4 m/S 748 mmHg 87%
20:00 +6°C° 0 mm 4 m/S 749 mmHg 88%
21:00 +7°C° 0 mm 3 m/S 749 mmHg 90%
22:00 +5°C° 0 mm 3 m/S 749 mmHg 91%
23:00 +5°C° 0 mm 3 m/S 749 mmHg 93%

3 November, Dienstag

Zeit Temperatur Niederschläge Wind Luftdruck Luftfeuchtigkeit
00:00 +5°C° 0 mm 3 m/S 749 mmHg 94%
01:00 +4°C° 0 mm 3 m/S 749 mmHg 95%
02:00 +4°C° 0 mm 3 m/S 749 mmHg 95%
03:00 +4°C° 0 mm 3 m/S 749 mmHg 96%
04:00 +4°C° 0 mm 3 m/S 749 mmHg 96%
05:00 +4°C° 0 mm 3 m/S 749 mmHg 96%
06:00 +4°C° 0 mm 3 m/S 749 mmHg 96%
07:00 +4°C° 0 mm 3 m/S 750 mmHg 95%
08:00 +4°C° 0 mm 3 m/S 750 mmHg 94%
09:00 +5°C° 0 mm 3 m/S 750 mmHg 94%
10:00 +5°C° 0 mm 3 m/S 751 mmHg 92%
11:00 +7°C° 0 mm 3 m/S 751 mmHg 90%
12:00 +8°C° 0 mm 3 m/S 751 mmHg 88%
13:00 +9°C° 0 mm 3 m/S 751 mmHg 86%
14:00 +9°C° 0 mm 3 m/S 751 mmHg 85%
15:00 +10°C° 0 mm 4 m/S 751 mmHg 84%
16:00 +9°C° 0 mm 3 m/S 752 mmHg 86%
17:00 +9°C° 0 mm 3 m/S 752 mmHg 87%
18:00 +8°C° 0 mm 2 m/S 752 mmHg 89%
19:00 +8°C° 0 mm 2 m/S 752 mmHg 91%
20:00 +8°C° 0 mm 2 m/S 752 mmHg 92%
21:00 +7°C° 0 mm 2 m/S 752 mmHg 94%
22:00 +7°C° 0 mm 2 m/S 752 mmHg 94%
23:00 +7°C° 0 mm 2 m/S 752 mmHg 94%

4 November, Mittwoch

Zeit Temperatur Niederschläge Wind Luftdruck Luftfeuchtigkeit
00:00 +7°C° 0 mm 2 m/S 752 mmHg 95%
01:00 +6°C° 0 mm 2 m/S 752 mmHg 95%
02:00 +6°C° 0 mm 2 m/S 752 mmHg 95%
03:00 +6°C° 0 mm 2 m/S 752 mmHg 95%
04:00 +6°C° 0 mm 2 m/S 753 mmHg 95%
05:00 +6°C° 0 mm 2 m/S 753 mmHg 95%
06:00 +6°C° 0 mm 2 m/S 753 mmHg 96%
07:00 +6°C° 0 mm 2 m/S 753 mmHg 96%
08:00 +6°C° 0 mm 2 m/S 753 mmHg 96%
09:00 +6°C° 0 mm 2 m/S 753 mmHg 97%
10:00 +7°C° 0 mm 2 m/S 753 mmHg 93%
11:00 +9°C° 0 mm 2 m/S 754 mmHg 88%
12:00 +10°C° 0 mm 2 m/S 754 mmHg 84%
13:00 +11°C° 0 mm 1 m/S 754 mmHg 83%
14:00 +11°C° 0 mm 1 m/S 753 mmHg 81%
15:00 +12°C° 0 mm 1 m/S 753 mmHg 80%
16:00 +11°C° 0 mm 1 m/S 753 mmHg 83%
17:00 +10°C° 0 mm 1 m/S 753 mmHg 87%
18:00 +9°C° 0 mm 1 m/S 753 mmHg 90%
19:00 +9°C° 0 mm 1 m/S 754 mmHg 91%
20:00 +8°C° 0 mm 1 m/S 754 mmHg 91%
21:00 +8°C° 0 mm 1 m/S 754 mmHg 92%
22:00 +8°C° 0 mm 1 m/S 754 mmHg 92%
23:00 +8°C° 0 mm 1 m/S 754 mmHg 92%
Mehr zeigen